Weather in Omolon

Russia / Chukotka Autonomous Okrug     65°14′08″N   160°32′15″E
temp.,
°C
wind,
m/s
gust,
m/s
humid.,
%
clouds,
%
prec.,
mm/h
press.,
hPa
HPBL,
m
17 august, wed
wed1700:00+9se1193100 1.3 100431
03:00+9ese2487100 0.4 1004126
06:00+8se3591100 1.3 1004181
09:00+9ese4889100 0.6 1005350
12:00+9sse3587100 1.3 1005311
15:00+9se3681100 1.0 1005391
18:00+8se61073100 1.0 1006514
21:00+7sse5973100 0.0 1007363
18 august, thu
thu1800:00+7se3579100 0.0 1006149
03:00+6se3581100 0.0 1006195
06:00+6ese4684100 0.0 1006253
09:00+7se4583100 0.0 1006404
12:00+9se4572100 0.0 1006727
15:00+11se5663100 0.0 10051032
18:00+11sse6762100 0.0 10061129
21:00+8sse3475100 0.0 100747
19 august, fri
fri1900:00+6se3381100 0.0 100924
03:00+5se2282100 0.0 100922
06:00+5se228067 0.0 100916
09:00+10se475572 0.0 1010557
12:00+14se893663 0.0 10081323
15:00+16sse9103489 0.0 10081559
18:00+16se9104018 0.0 10081763
21:00+11se57565 0.0 100980
20 august, sat
sat2000:00+8ese676410 0.0 101090
03:00+7ese6106437 0.0 1009146
06:00+7se686511 0.0 1009112
09:00+12se6951100 0.0 10091029
12:00+11sse71060100 0.0 1009992
15:00+8se4688100 2.0 1011416
18:00+8ese4588100 3.7 1012296
21:00+8ese4585100 0.0 1012145
21 august, sun
sun2100:00+8se3485100 0.0 101390
03:00+7se238658 0.0 101351
06:00+8se228595 0.0 101349
09:00+10se237687 0.0 1013302
12:00+13se236674 0.0 1012752
15:00+15e446191 0.0 1012667
18:00+16se445582 0.0 10111086
21:00+12ese446897 0.0 101245